This is the latest recevied weather packets stored in our database for station/object K6CED. If no packets are shown the sender has not sent any weather packets the latest 1 day(s).
| Time | Temp. | Humidity | Pressure | Rain* | Wind** | Luminosity | Snow |
|---|---|---|---|---|---|---|---|
| 1778022000 | 16.67° C | 55% | 1016.1 hPa | 0 mm | 3.13 m/s, 110° | 65 W/m² | - |
| 1778021697 | 16.67° C | 55% | 1016.1 hPa | 0 mm | 1.79 m/s, 103° | 81 W/m² | - |
| 1778021394 | 16.67° C | 55% | 1016.2 hPa | 0 mm | 4.02 m/s, 116° | 106 W/m² | - |
| 1778021090 | 16.67° C | 55% | 1016.1 hPa | 0 mm | 3.13 m/s, 126° | 143 W/m² | - |
| 1778020788 | 16.67° C | 55% | 1016.1 hPa | 0 mm | 2.68 m/s, 116° | 152 W/m² | - |
| 1778020485 | 16.67° C | 56% | 1016.2 hPa | 0 mm | 3.13 m/s, 73° | 129 W/m² | - |
| 1778020181 | 16.67° C | 56% | 1016.4 hPa | 0 mm | 1.34 m/s, 73° | 119 W/m² | - |
| 1778019877 | 16.67° C | 56% | 1016.4 hPa | 0 mm | 1.34 m/s, 8° | 123 W/m² | - |
| 1778019573 | 16.67° C | 56% | 1016.3 hPa | 0 mm | 0.89 m/s, 21° | 147 W/m² | - |
| 1778019271 | 16.67° C | 56% | 1016.4 hPa | 0 mm | 1.34 m/s, 113° | 156 W/m² | - |
| 1778018968 | 16.67° C | 56% | 1016.4 hPa | 0 mm | 2.68 m/s, 113° | 153 W/m² | - |
| 1778018665 | 17.22° C | 55% | 1016.4 hPa | 0 mm | 0.89 m/s, 57° | 160 W/m² | - |
| 1778018362 | 17.22° C | 54% | 1016.2 hPa | 0 mm | 1.34 m/s, 111° | 177 W/m² | - |
| 1778018060 | 17.78° C | 54% | 1016.3 hPa | 0 mm | 0.45 m/s, 31° | 218 W/m² | - |
| 1778017758 | 17.78° C | 55% | 1016.3 hPa | 0 mm | 0.89 m/s, 80° | 267 W/m² | - |
| 1778017455 | 18.33° C | 54% | 1016.5 hPa | 0 mm | 1.79 m/s, 106° | 331 W/m² | - |
| 1778017152 | 17.78° C | 55% | 1016.5 hPa | 0 mm | 1.34 m/s, 76° | 905 W/m² | - |
| 1778016850 | 18.33° C | 55% | 1016.5 hPa | 0 mm | 2.24 m/s, 103° | 791 W/m² | - |
| 1778016546 | 18.89° C | 54% | 1016.5 hPa | 0 mm | 0.89 m/s, 92° | 457 W/m² | - |
| 1778016243 | 18.89° C | 53% | 1016.5 hPa | 0 mm | 1.79 m/s, 26° | 881 W/m² | - |
| 1778015939 | 18.89° C | 54% | 1016.5 hPa | 0 mm | 1.34 m/s, 13° | 956 W/m² | - |
| 1778015637 | 18.33° C | 54% | 1016.4 hPa | 0 mm | 1.79 m/s, 12° | 1008 W/m² | - |
| 1778015333 | 17.22° C | 56% | 1016.6 hPa | 0 mm | 0.89 m/s, 112° | 925 W/m² | - |
| 1778015030 | 17.22° C | 56% | 1016.7 hPa | 0 mm | 0.89 m/s, 95° | 310 W/m² | - |
| 1778014727 | 17.78° C | 54% | 1016.7 hPa | 0 mm | 0.89 m/s, 45° | 243 W/m² | - |
* Rain latest hour (hover to see other rain measurements)
** Current wind speed in m/s (hover to see current wind gust speed)